Location: Unspecified
(0.0000°N, 0.0000°E)
Time: 17:41:13
(UTC+00:00)

Courier 1B - Pass Details

Date: 26 September 2023
Orbit: 962 x 1208 km, 28.3° (Epoch: 28 November)

Event Time Altitude Azimuth Distance (km) Brightness Sun altitude
Rises 10:42:59 0° 258° (WSW) 3,894 10.5 72.8°
Reaches altitude 10° 10:45:53 10° 265° (W) 2,973 10.0 73.6°
Maximum altitude 10:52:39 39° 332° (NNW) 1,668 9.2 75.3°
Drops below altitude 10° 10:59:44 10° 38° (NE) 3,107 10.4 77.0°
Sets 11:02:51 0° 46° (NE) 4,087 10.9 77.8°
